Flight Track Log - Related Links

Times and Time Zones

All times are in EDT time to prevent confusion due to time zone crossing. See the SWA1729 flight status page for this flight to view local times or setup timezone preferences in your user account.

Time Position Orientation Groundspeed Altitude Reporting Facility
EDT Latitude Longitude Course Direction KTS km/h feet Rate Location/Type
Wed 19:22:50 36.1000 -86.6833 238° Southwest 164 304 1,300  Level Nashville TRACON
Wed 19:23:20 36.0833 -86.7167 238° Southwest 193 357 2,100 2,533 Climbing Nashville TRACON
Wed 19:24:20 36.0833 -86.7833 270° West 243 451 5,100 2,949 Climbing Nashville TRACON
Wed 19:26:17 36.0914 -86.9692 273° West 270 501 10,800 2,678 Climbing Memphis Center
Wed 19:27:17 36.0947 -87.0922 272° West 299 554 13,000 2,550 Climbing Memphis Center
Wed 19:28:17 36.0978 -87.2103 272° West 339 628 15,900 2,600 Climbing Memphis Center
Wed 19:29:17 36.0778 -87.3317 259° West 350 649 18,200 2,200 Climbing Memphis Center
Wed 19:30:17 36.0517 -87.4558 255° West 363 673 20,300 2,000 Climbing Memphis Center
Wed 19:31:17 36.0253 -87.5853 256° West 378 700 22,200 1,900 Climbing Memphis Center
Wed 19:32:17 35.9989 -87.7144 256° West 389 721 24,100 1,800 Climbing Memphis Center
Wed 19:33:17 35.9706 -87.8511 256° West 401 742 25,800 1,700 Climbing Memphis Center
Wed 19:34:17 35.9439 -87.9853 256° West 406 752 27,500 1,550 Climbing Memphis Center
Wed 19:35:17 35.9192 -88.1092 256° West 411 761 28,900 1,650 Climbing Memphis Center
Wed 19:36:17 35.8922 -88.2381 256° West 406 752 30,800 1,600 Climbing Memphis Center
Wed 19:37:17 35.8653 -88.3692 256° West 401 742 32,100 1,250 Climbing Memphis Center
Wed 19:38:17 35.8361 -88.5133 256° West 396 734 33,300 1,200 Climbing Memphis Center
Wed 19:39:17 35.8089 -88.6472 256° West 396 734 34,500 1,200 Climbing Memphis Center
Wed 19:40:17 35.7836 -88.7781 257° West 396 734 35,700 750 Climbing Memphis Center
Wed 19:41:17 35.7581 -88.9092 257° West 396 734 36,000 150 Climbing Memphis Center
Wed 19:42:17 35.7158 -89.0350 248° West 396 734 36,000  Level Memphis Center
Wed 19:43:17 35.6458 -89.1383 230° Southwest 396 734 36,000  Level Memphis Center
Wed 19:44:17 35.5697 -89.2392 227° Southwest 408 756 36,000  Level Memphis Center
Wed 19:45:17 35.4933 -89.3447 228° Southwest 408 756 36,000  Level Memphis Center
Wed 19:46:17 35.4192 -89.4450 228° Southwest 413 764 36,000  Level Memphis Center
Wed 19:47:17 35.3406 -89.5503 228° Southwest 413 764 36,000  Level Memphis Center
Wed 19:48:17 35.2661 -89.6525 228° Southwest 413 764 36,000  Level Memphis Center
Wed 19:49:17 35.1894 -89.7575 228° Southwest 413 764 36,000  Level Memphis Center
Wed 19:50:17 35.1147 -89.8594 228° Southwest 413 764 36,000  Level Memphis Center
Wed 19:51:17 35.0381 -89.9614 227° Southwest 413 764 36,000  Level Memphis Center
Wed 19:52:17 34.9506 -90.0506 220° Southwest 407 753 36,000  Level Memphis Center
Wed 19:53:17 34.8589 -90.1344 217° Southwest 412 763 36,000  Level Memphis Center
Wed 19:54:17 34.7694 -90.2156 217° Southwest 412 763 36,000  Level Memphis Center
Wed 19:55:17 34.6797 -90.2964 217° Southwest 407 753 36,000  Level Memphis Center
Wed 19:56:17 34.5922 -90.3772 217° Southwest 407 753 36,000  Level Memphis Center
Wed 19:57:17 34.5003 -90.4581 216° Southwest 407 753 36,000  Level Memphis Center
Wed 19:58:17 34.4106 -90.5383 216° Southwest 407 753 36,000  Level Memphis Center
Wed 19:59:17 34.3206 -90.6211 217° Southwest 407 753 36,000  Level Memphis Center
Wed 20:00:17 34.2411 -90.6939 217° Southwest 407 753 36,000  Level Memphis Center
Wed 20:01:17 34.1492 -90.7739 216° Southwest 412 763 36,000  Level Memphis Center
Wed 20:02:17 34.0592 -90.8586 218° Southwest 412 763 36,000  Level Memphis Center
Wed 20:03:17 33.9689 -90.9408 217° Southwest 412 763 36,000  Level Memphis Center
Wed 20:04:17 33.8747 -91.0203 215° Southwest 417 772 36,000  Level Memphis Center
Wed 20:05:17 33.7781 -91.1094 217° Southwest 412 763 36,000  Level Memphis Center
Wed 20:06:17 33.6836 -91.1961 217° Southwest 420 777 36,000  Level Memphis Center
Wed 20:07:17 33.5933 -91.2725 215° Southwest 415 769 36,000  Level Memphis Center
Wed 20:08:17 33.4989 -91.3586 217° Southwest 415 769 36,000 -316 Level Memphis Center
Wed 20:10:27 33.3172 -91.5225 217° Southwest 414 766 35,000 -632 Descending Fort Worth Center
Wed 20:11:27 33.2292 -91.6003 216° Southwest 414 766 34,000 -500 Descending Fort Worth Center
Wed 20:12:27 33.1406 -91.6731 215° Southwest 401 742 34,000  Level Fort Worth Center
Wed 20:13:27 33.0522 -91.7481 215° Southwest 396 734 34,000  Level Fort Worth Center
Wed 20:14:27 32.9700 -91.8228 217° Southwest 389 721 34,000 -100 Level Fort Worth Center
Wed 20:15:27 32.8797 -91.9025 217° Southwest 396 734 33,800 -550 Descending Fort Worth Center
Wed 20:16:27 32.7911 -91.9797 216° Southwest 401 742 32,900 -900 Descending Fort Worth Center
Wed 20:17:27 32.6942 -92.0569 214° Southwest 408 756 32,000 -450 Descending Fort Worth Center
Wed 20:18:27 32.6019 -92.1414 218° Southwest 419 776 32,000  Level Fort Worth Center
Wed 20:20:05 32.4567 -92.2653 216° Southwest 404 748 32,000  Level Houston Center
Wed 20:21:07 32.3681 -92.3406 216° Southwest 395 732 32,000  Level Houston Center
Wed 20:22:09 32.2806 -92.4164 216° Southwest 392 726 32,000  Level Houston Center
Wed 20:23:11 32.1772 -92.5036 216° Southwest 384 711 32,000  Level Houston Center
Wed 20:24:13 32.0906 -92.5772 216° Southwest 383 710 32,000  Level Houston Center
Wed 20:25:15 32.0039 -92.6525 216° Southwest 386 715 32,000  Level Houston Center
Wed 20:26:17 31.9272 -92.7367 223° Southwest 382 708 32,000  Level Houston Center
Wed 20:27:19 31.8561 -92.8278 227° Southwest 377 698 32,000  Level Houston Center
Wed 20:28:21 31.7683 -92.9392 227° Southwest 385 713 32,000  Level Houston Center
Wed 20:29:23 31.6972 -93.0308 228° Southwest 385 713 32,000  Level Houston Center
Wed 20:30:25 31.6228 -93.1233 227° Southwest 390 723 32,000  Level Houston Center
Wed 20:31:27 31.5500 -93.2175 228° Southwest 391 724 32,000  Level Houston Center
Wed 20:32:29 31.4761 -93.3108 227° Southwest 392 726 32,000  Level Houston Center
Wed 20:33:31 31.3850 -93.4242 227° Southwest 398 737 32,000  Level Houston Center
Wed 20:34:33 31.3089 -93.5183 227° Southwest 400 740 32,000  Level Houston Center
Wed 20:35:35 31.2272 -93.6194 227° Southwest 403 747 32,000  Level Houston Center
Wed 20:36:37 31.1503 -93.7142 227° Southwest 402 745 32,000  Level Houston Center
Wed 20:37:39 31.0731 -93.8100 227° Southwest 403 747 32,000  Level Houston Center
Wed 20:38:41 30.9961 -93.9044 226° Southwest 401 742 32,000  Level Houston Center
Wed 20:39:43 30.9181 -94.0008 227° Southwest 404 748 32,000  Level Houston Center
Wed 20:40:45 30.8406 -94.0953 226° Southwest 402 745 32,000 -1,355 Level Houston Center
Wed 20:41:47 30.7489 -94.2075 226° Southwest 399 739 29,200 -2,613 Descending Houston Center
Wed 20:42:49 30.6742 -94.2992 227° Southwest 391 724 26,600 -2,400 Descending Houston Center
Wed 20:43:52 30.6033 -94.3853 226° Southwest 369 684 24,200 -2,329 Descending Houston Center
Wed 20:44:14 30.5758 -94.4217 229° Southwest 360 666 23,300 -2,264 Descending Houston Center
Wed 20:44:45 30.5419 -94.4600 224° Southwest 357 661 22,200 -2,176 Descending Houston Center
Wed 20:45:56 30.4717 -94.5517 228° Southwest 343 636 19,600 -2,311 Descending Houston Center
Wed 20:46:47 30.4200 -94.6336 234° Southwest 329 610 17,500 -2,304 Descending Houston Center
Wed 20:47:48 30.3650 -94.7158 232° Southwest 318 589 15,300 -2,164 Descending Houston Center
Wed 20:48:49 30.3122 -94.8025 235° Southwest 311 576 13,100 -2,066 Descending Houston Center
Wed 20:49:50 30.2608 -94.8792 232° Southwest 301 557 11,100 -1,525 Descending Houston Center
Wed 20:50:51 30.2094 -94.9581 233° Southwest 298 552 10,000 -868 Descending Houston Center
Wed 20:51:06 30.2061 -94.9642 238° Southwest 300 555 10,000  Level Houston Center
Wed 20:52:08 30.1564 -95.0411 233° Southwest 300 555 10,000  Level Houston Center
Wed 20:52:54 30.0936 -95.0886 213° Southwest 295 546 10,000  Level Houston Center
Wed 20:53:10 30.0736 -95.0981 202° Southwest 295 546 10,000 -358 Level Houston Center
Wed 20:54:01 30.0089 -95.1256 200° South 263 488 9,600 -643 Descending Houston Center
Wed 20:55:02 29.9461 -95.1525 200° South 228 422 8,800 -879 Descending Houston Center
Wed 20:55:57 29.8936 -95.1758 201° Southwest 207 383 7,900 -973 Descending Houston Center
Wed 20:56:16 29.8847 -95.1789 197° South 212 393 7,600 -885 Descending Houston Center
Wed 20:56:58 29.8392 -95.1994 201° Southwest 207 383 7,000 -581 Descending Houston Center
Wed 20:57:18 29.8306 -95.2019 194° South 209 388 7,000 -787 Level Houston Center
Wed 20:57:59 29.7825 -95.2231 201° Southwest 210 389 6,200 -871 Descending Houston Center
Wed 20:58:20 29.7761 -95.2256 199° South 210 389 6,100 -218 Descending Houston Center
Wed 20:58:54 29.7319 -95.2436 200° South 216 401 6,000 -97 Descending Houston Center
Wed 20:59:22 29.7094 -95.2547 203° Southwest 215 398 6,000  Level Houston Center
Wed 21:00:01 29.6714 -95.2703 200° South 215 398 6,000  Level Houston Center
Wed 21:00:24 29.6575 -95.2858 224° Southwest 221 409 6,000 -290 Level Houston Center
Wed 21:01:03 29.6397 -95.3367 248° West 246 455 5,700 -484 Descending Houston Center
Wed 21:01:26 29.6358 -95.3550 256° West 238 441 5,500 -1,082 Descending Houston Center
Wed 21:02:04 29.6444 -95.4106 280° West 257 476 4,600 -1,180 Descending Houston Center
Wed 21:02:27 29.6575 -95.4244 317° Northwest 257 476 4,300 -1,279 Descending Houston Center
Wed 21:03:05 29.6942 -95.4719 312° West 267 494 3,300 -1,258 Descending Houston Center
Wed 21:03:29 29.7075 -95.4878 314° West 264 489 3,000 -295 Descending Houston Center
Wed 21:04:06 29.7511 -95.4747 15° North 216 401 3,000  Level Houston Center
Wed 21:04:31 29.7700 -95.4517 47° Northeast 230 426 3,000 -327 Level Houston Center
Wed 21:05:01 29.7694 -95.4222 91° East 193 357 2,700 -968 Descending Houston Center
Wed 21:05:33 29.7503 -95.4033 139° Southeast 202 373 2,000 -689 Descending Houston Center
Wed 21:06:02 29.7325 -95.3856 139° Southeast 167 309 2,000  Level Houston Center
Wed 21:06:35 29.7181 -95.3672 132° Southeast 178 330 2,000 -358 Level Houston Center
Wed 21:07:09 29.7039 -95.3481 130° Southeast 120 222 1,600 -581 Descending Houston Center
Wed 21:07:37 29.6967 -95.3408 139° Southeast 135 249 1,400 -545 Descending Houston Center
Wed 21:08:04 29.6828 -95.3242 134° Southeast 108 200 1,100 -689 Descending Houston Center
Wed 21:08:38 29.6722 -95.3117 134° Southeast 127 235 700 -716 Descending Houston Center
Wed 21:09:11 29.6544 -95.2917 136° Southeast 131 243 300 -484 Descending Houston Center
Wed 21:09:40 29.6447 -95.2794 132° Southeast 127 235 200 -207 Descending Houston Center

Login

Don't have an account? Register now (free) for customized features, flight alerts, and more!